Time,TemperatureF,DewpointF,PressureIn,WindDirection,WindDirectionDegrees,WindSpeedMPH,WindSpeedGustMPH,Humidity,HourlyPrecipIn,Conditions,Clouds,dailyrainin,SoftwareType,DateUTC
2013-08-07 00:00:00,73.7,73.4,29.93,North,1,0.0,0.0,99,0.00,,---,0.00,VWS V14.01,2013-08-07 05:00:00,
2013-08-07 00:01:00,73.7,73.4,29.93,North,1,0.0,0.0,99,0.00,,---,0.00,VWS V14.01,2013-08-07 05:01:00,
2013-08-07 00:06:00,73.7,73.4,29.94,North,1,0.0,0.0,99,0.00,,---,0.00,VWS V14.01,2013-08-07 05:06:00,
2013-08-07 00:11:00,73.7,73.1,29.94,North,1,0.0,0.0,98,0.00,,---,0.00,VWS V14.01,2013-08-07 05:11:00,
2013-08-07 00:16:00,73.6,73.0,29.94,ESE,103,0.0,1.0,98,0.00,,---,0.00,VWS V14.01,2013-08-07 05:16:00,
2013-08-07 00:21:00,73.5,72.9,29.94,ESE,105,0.0,1.0,98,0.00,,---,0.00,VWS V14.01,2013-08-07 05:21:00,
2013-08-07 00:26:00,73.5,72.9,29.94,East,82,0.0,1.0,98,0.00,,---,0.00,VWS V14.01,2013-08-07 05:26:00,
2013-08-07 00:30:00,73.6,73.0,29.95,NE,40,2.0,3.0,98,0.00,,---,0.00,VWS V14.01,2013-08-07 05:30:00,
2013-08-07 00:31:00,73.6,73.0,29.95,NNE,32,1.0,2.0,98,0.00,,---,0.00,VWS V14.01,2013-08-07 05:31:00,
2013-08-07 00:36:00,73.5,72.9,29.94,ENE,77,0.0,4.0,98,0.00,,---,0.00,VWS V14.01,2013-08-07 05:36:00,
2013-08-07 00:41:00,73.5,72.9,29.95,NNE,32,0.0,4.0,98,0.00,,---,0.00,VWS V14.01,2013-08-07 05:41:00,
2013-08-07 00:46:00,73.5,72.9,29.95,NE,53,0.0,4.0,98,0.00,,---,0.00,VWS V14.01,2013-08-07 05:46:00,
2013-08-07 00:51:00,73.4,72.8,29.94,East,89,2.0,4.0,98,0.00,,---,0.00,VWS V14.01,2013-08-07 05:51:00,
2013-08-07 00:56:00,73.4,72.8,29.94,East,99,2.0,4.0,98,0.00,,---,0.00,VWS V14.01,2013-08-07 05:56:00,
2013-08-07 01:00:00,73.5,72.9,29.94,ENE,75,0.0,4.0,98,0.00,,---,0.00,VWS V14.01,2013-08-07 06:00:00,
2013-08-07 01:01:00,73.5,72.9,29.94,North,349,0.0,2.0,98,0.00,,---,0.00,VWS V14.01,2013-08-07 06:01:00,
2013-08-07 01:06:00,73.5,72.9,29.94,North,359,0.0,2.0,98,0.00,,---,0.00,VWS V14.01,2013-08-07 06:06:00,
2013-08-07 01:11:00,73.5,72.9,29.94,NE,39,0.0,2.0,98,0.00,,---,0.00,VWS V14.01,2013-08-07 06:11:00,
2013-08-07 01:16:00,73.5,73.2,29.94,ESE,120,0.0,2.0,99,0.00,,---,0.00,VWS V14.01,2013-08-07 06:16:00,
2013-08-07 01:21:00,73.5,73.2,29.93,East,91,0.0,2.0,99,0.00,,---,0.00,VWS V14.01,2013-08-07 06:21:00,
2013-08-07 01:26:00,73.4,73.1,29.93,East,93,0.0,2.0,99,0.00,,---,0.00,VWS V14.01,2013-08-07 06:26:00,
2013-08-07 01:30:00,73.4,73.1,29.93,East,94,0.0,2.0,99,0.00,,---,0.00,VWS V14.01,2013-08-07 06:30:00,
2013-08-07 01:31:00,73.4,73.1,29.93,East,93,0.0,0.0,99,0.00,,---,0.00,VWS V14.01,2013-08-07 06:31:00,
2013-08-07 01:36:00,73.3,73.0,29.93,East,93,0.0,0.0,99,0.00,,---,0.00,VWS V14.01,2013-08-07 06:36:00,
2013-08-07 01:41:00,73.3,73.0,29.93,East,94,0.0,0.0,99,0.00,,---,0.00,VWS V14.01,2013-08-07 06:41:00,
2013-08-07 01:46:00,73.3,73.0,29.93,East,94,0.0,0.0,99,0.00,,---,0.00,VWS V14.01,2013-08-07 06:46:00,
2013-08-07 01:51:00,73.3,73.0,29.93,East,94,0.0,0.0,99,0.00,,---,0.00,VWS V14.01,2013-08-07 06:51:00,
2013-08-07 01:56:00,73.3,73.0,29.93,East,93,0.0,0.0,99,0.00,,---,0.00,VWS V14.01,2013-08-07 06:56:00,
2013-08-07 02:00:00,73.2,72.9,29.92,East,93,0.0,0.0,99,0.00,,---,0.00,VWS V14.01,2013-08-07 07:00:00,
2013-08-07 02:01:00,73.3,73.0,29.92,East,94,0.0,0.0,99,0.00,,---,0.00,VWS V14.01,2013-08-07 07:01:00,
2013-08-07 02:06:00,73.2,72.9,29.92,East,93,0.0,0.0,99,0.00,,---,0.00,VWS V14.01,2013-08-07 07:06:00,
2013-08-07 02:11:00,73.2,72.9,29.92,East,94,0.0,0.0,99,0.00,,---,0.00,VWS V14.01,2013-08-07 07:11:00,
2013-08-07 02:16:00,73.2,72.9,29.92,East,91,0.0,0.0,99,0.00,,---,0.00,VWS V14.01,2013-08-07 07:16:00,
2013-08-07 02:21:00,73.2,72.9,29.92,East,92,0.0,0.0,99,0.00,,---,0.00,VWS V14.01,2013-08-07 07:21:00,
2013-08-07 02:26:00,73.2,72.9,29.92,NNE,23,0.0,0.0,99,0.00,,---,0.00,VWS V14.01,2013-08-07 07:26:00,
2013-08-07 02:30:00,73.2,72.9,29.92,NNE,20,0.0,0.0,99,0.00,,---,0.00,VWS V14.01,2013-08-07 07:30:00,
2013-08-07 02:31:00,73.2,72.9,29.92,NNE,20,0.0,0.0,99,0.00,,---,0.00,VWS V14.01,2013-08-07 07:31:00,
2013-08-07 02:36:00,73.2,72.9,29.92,NNE,20,0.0,0.0,99,0.00,,---,0.00,VWS V14.01,2013-08-07 07:36:00,
2013-08-07 02:41:00,73.1,72.8,29.92,NNE,20,0.0,0.0,99,0.00,,---,0.00,VWS V14.01,2013-08-07 07:41:00,
2013-08-07 02:46:00,73.1,72.8,29.92,NNE,20,0.0,0.0,99,0.00,,---,0.00,VWS V14.01,2013-08-07 07:46:00,
2013-08-07 02:51:00,73.0,72.7,29.92,NNE,20,0.0,0.0,99,0.00,,---,0.00,VWS V14.01,2013-08-07 07:51:00,
2013-08-07 02:56:00,73.0,72.7,29.92,NNE,20,0.0,0.0,99,0.00,,---,0.00,VWS V14.01,2013-08-07 07:56:00,
2013-08-07 03:00:00,73.0,72.7,29.92,NNE,20,0.0,0.0,99,0.00,,---,0.00,VWS V14.01,2013-08-07 08:00:00,
2013-08-07 03:01:00,73.0,72.7,29.92,NNE,20,0.0,0.0,99,0.00,,---,0.00,VWS V14.01,2013-08-07 08:01:00,
2013-08-07 03:06:00,73.0,72.7,29.92,NNE,20,0.0,0.0,99,0.00,,---,0.00,VWS V14.01,2013-08-07 08:06:00,
2013-08-07 03:11:00,73.1,72.8,29.92,NNE,20,0.0,0.0,99,0.00,,---,0.00,VWS V14.01,2013-08-07 08:11:00,
2013-08-07 03:16:00,73.1,72.8,29.92,NNE,20,0.0,0.0,99,0.00,,---,0.00,VWS V14.01,2013-08-07 08:16:00,
2013-08-07 03:21:00,73.1,72.8,29.92,NNE,20,0.0,0.0,99,0.00,,---,0.00,VWS V14.01,2013-08-07 08:21:00,
2013-08-07 03:26:00,73.0,72.7,29.92,NNE,19,0.0,0.0,99,0.00,,---,0.00,VWS V14.01,2013-08-07 08:26:00,
2013-08-07 03:30:00,73.0,72.7,29.92,NNE,20,0.0,0.0,99,0.00,,---,0.00,VWS V14.01,2013-08-07 08:30:00,
2013-08-07 03:31:00,72.9,72.6,29.92,NNE,20,0.0,0.0,99,0.00,,---,0.00,VWS V14.01,2013-08-07 08:31:00,
2013-08-07 03:36:00,72.9,72.6,29.92,NNE,20,0.0,0.0,99,0.00,,---,0.00,VWS V14.01,2013-08-07 08:36:00,
2013-08-07 03:41:00,72.8,72.5,29.92,NNE,20,0.0,0.0,99,0.00,,---,0.00,VWS V14.01,2013-08-07 08:41:00,
2013-08-07 03:46:00,72.8,72.5,29.92,NNE,20,0.0,0.0,99,0.00,,---,0.00,VWS V14.01,2013-08-07 08:46:00,
2013-08-07 03:51:00,72.8,72.5,29.92,NNE,20,0.0,0.0,99,0.00,,---,0.00,VWS V14.01,2013-08-07 08:51:00,
2013-08-07 03:56:00,72.8,72.5,29.92,NNE,20,0.0,0.0,99,0.00,,---,0.00,VWS V14.01,2013-08-07 08:56:00,
2013-08-07 04:00:00,72.8,72.5,29.92,NNE,20,0.0,0.0,99,0.00,,---,0.00,VWS V14.01,2013-08-07 09:00:00,
2013-08-07 04:01:00,72.9,72.6,29.92,NNE,20,0.0,0.0,99,0.00,,---,0.00,VWS V14.01,2013-08-07 09:01:00,
2013-08-07 04:06:00,72.9,72.6,29.92,NNE,20,0.0,0.0,99,0.00,,---,0.00,VWS V14.01,2013-08-07 09:06:00,
2013-08-07 04:11:00,72.9,72.6,29.92,NNE,20,0.0,0.0,99,0.00,,---,0.00,VWS V14.01,2013-08-07 09:11:00,
2013-08-07 04:16:00,72.8,72.5,29.92,NNE,20,0.0,0.0,99,0.00,,---,0.00,VWS V14.01,2013-08-07 09:16:00,
2013-08-07 04:21:00,72.7,72.4,29.92,NNE,20,0.0,0.0,99,0.00,,---,0.00,VWS V14.01,2013-08-07 09:21:00,
2013-08-07 04:26:00,72.7,72.4,29.92,NNE,20,0.0,0.0,99,0.00,,---,0.00,VWS V14.01,2013-08-07 09:26:00,
2013-08-07 04:30:00,72.6,72.3,29.92,NNE,20,0.0,0.0,99,0.00,,---,0.00,VWS V14.01,2013-08-07 09:30:00,
2013-08-07 04:31:00,72.6,72.3,29.92,NNE,20,0.0,0.0,99,0.00,,---,0.00,VWS V14.01,2013-08-07 09:31:00,
2013-08-07 04:36:00,72.5,72.2,29.92,NNE,20,0.0,0.0,99,0.00,,---,0.00,VWS V14.01,2013-08-07 09:36:00,
2013-08-07 04:41:00,72.5,72.2,29.92,NNE,20,0.0,0.0,99,0.00,,---,0.00,VWS V14.01,2013-08-07 09:41:00,
2013-08-07 04:46:00,72.6,72.3,29.92,NNE,20,0.0,0.0,99,0.00,,---,0.00,VWS V14.01,2013-08-07 09:46:00,
2013-08-07 04:51:00,72.6,72.3,29.92,NNE,20,0.0,0.0,99,0.00,,---,0.00,VWS V14.01,2013-08-07 09:51:00,
2013-08-07 04:56:00,72.5,72.2,29.92,NNE,20,0.0,0.0,99,0.00,,---,0.00,VWS V14.01,2013-08-07 09:56:00,
2013-08-07 05:00:00,72.6,72.3,29.92,NNE,20,0.0,0.0,99,0.00,,---,0.00,VWS V14.01,2013-08-07 10:00:00,
2013-08-07 05:01:00,72.6,72.3,29.92,NNE,20,0.0,0.0,99,0.00,,---,0.00,VWS V14.01,2013-08-07 10:01:00,
2013-08-07 05:06:00,72.5,72.2,29.92,NNE,20,0.0,0.0,99,0.00,,---,0.00,VWS V14.01,2013-08-07 10:06:00,
2013-08-07 05:11:00,72.5,72.2,29.92,NNE,20,0.0,0.0,99,0.00,,---,0.00,VWS V14.01,2013-08-07 10:11:00,
2013-08-07 05:16:00,72.5,72.2,29.92,NNE,20,0.0,0.0,99,0.00,,---,0.00,VWS V14.01,2013-08-07 10:16:00,
2013-08-07 05:21:00,72.4,72.1,29.92,NNE,20,0.0,0.0,99,0.00,,---,0.00,VWS V14.01,2013-08-07 10:21:00,
2013-08-07 05:26:00,72.4,72.1,29.92,NNE,20,0.0,0.0,99,0.00,,---,0.00,VWS V14.01,2013-08-07 10:26:00,
2013-08-07 05:30:00,72.4,72.1,29.92,NNE,20,0.0,0.0,99,0.00,,---,0.00,VWS V14.01,2013-08-07 10:30:00,
2013-08-07 05:31:00,72.4,72.1,29.92,NNE,20,0.0,0.0,99,0.00,,---,0.00,VWS V14.01,2013-08-07 10:31:00,
2013-08-07 05:36:00,72.4,72.1,29.92,NNE,20,0.0,0.0,99,0.00,,---,0.00,VWS V14.01,2013-08-07 10:36:00,
2013-08-07 05:41:00,72.4,72.1,29.92,NNE,20,0.0,0.0,99,0.00,,---,0.00,VWS V14.01,2013-08-07 10:41:00,
2013-08-07 05:46:00,72.3,72.0,29.92,NNE,20,0.0,0.0,99,0.00,,---,0.00,VWS V14.01,2013-08-07 10:46:00,
2013-08-07 05:51:00,72.3,72.0,29.92,NNE,20,0.0,0.0,99,0.00,,---,0.00,VWS V14.01,2013-08-07 10:51:00,
2013-08-07 05:56:00,72.3,72.0,29.92,NNE,20,0.0,0.0,99,0.00,,---,0.00,VWS V14.01,2013-08-07 10:56:00,
2013-08-07 06:00:00,72.3,72.0,29.92,NNE,20,0.0,0.0,99,0.00,,---,0.00,VWS V14.01,2013-08-07 11:00:00,
2013-08-07 06:01:00,72.3,72.0,29.92,NNE,20,0.0,0.0,99,0.00,,---,0.00,VWS V14.01,2013-08-07 11:01:00,
2013-08-07 06:06:00,72.3,72.0,29.92,NNE,20,0.0,0.0,99,0.00,,---,0.00,VWS V14.01,2013-08-07 11:06:00,
2013-08-07 06:11:00,72.3,72.0,29.93,NNE,20,0.0,0.0,99,0.00,,---,0.00,VWS V14.01,2013-08-07 11:11:00,
2013-08-07 06:16:00,72.4,72.1,29.93,NNE,20,0.0,0.0,99,0.00,,---,0.00,VWS V14.01,2013-08-07 11:16:00,
2013-08-07 06:21:00,72.4,72.1,29.93,NNE,20,0.0,0.0,99,0.00,,---,0.00,VWS V14.01,2013-08-07 11:21:00,
2013-08-07 06:26:00,72.4,72.1,29.93,NNE,20,0.0,0.0,99,0.00,,---,0.00,VWS V14.01,2013-08-07 11:26:00,
2013-08-07 06:30:00,72.4,72.1,29.93,NNE,20,0.0,0.0,99,0.00,,---,0.00,VWS V14.01,2013-08-07 11:30:00,
2013-08-07 06:31:00,72.4,72.1,29.94,NNE,20,0.0,0.0,99,0.00,,---,0.00,VWS V14.01,2013-08-07 11:31:00,
2013-08-07 06:36:00,72.5,72.2,29.94,NNE,20,0.0,0.0,99,0.00,,---,0.00,VWS V14.01,2013-08-07 11:36:00,
2013-08-07 06:41:00,72.6,72.3,29.94,NNE,20,0.0,0.0,99,0.00,,---,0.00,VWS V14.01,2013-08-07 11:41:00,
2013-08-07 06:46:00,72.6,72.3,29.94,NNE,20,0.0,0.0,99,0.00,,---,0.00,VWS V14.01,2013-08-07 11:46:00,
2013-08-07 06:51:00,72.6,72.3,29.94,ESE,113,0.0,0.0,99,0.00,,---,0.00,VWS V14.01,2013-08-07 11:51:00,
2013-08-07 06:56:00,72.7,72.4,29.95,NNE,23,0.0,0.0,99,0.00,,---,0.00,VWS V14.01,2013-08-07 11:56:00,
2013-08-07 07:00:00,72.7,72.4,29.95,NNE,32,0.0,0.0,99,0.00,,---,0.00,VWS V14.01,2013-08-07 12:00:00,
2013-08-07 07:01:00,72.9,72.6,29.95,NNE,32,0.0,0.0,99,0.00,,---,0.00,VWS V14.01,2013-08-07 12:01:00,
2013-08-07 07:06:00,73.4,73.1,29.95,NNE,33,0.0,0.0,99,0.00,,---,0.00,VWS V14.01,2013-08-07 12:06:00,
2013-08-07 07:11:00,73.8,73.5,29.95,NNE,33,0.0,0.0,99,0.00,,---,0.00,VWS V14.01,2013-08-07 12:11:00,
2013-08-07 07:16:00,74.0,73.7,29.95,NNE,15,0.0,0.0,99,0.00,,---,0.00,VWS V14.01,2013-08-07 12:16:00,
2013-08-07 07:21:00,74.6,74.3,29.95,NNE,15,0.0,0.0,99,0.00,,---,0.00,VWS V14.01,2013-08-07 12:21:00,
2013-08-07 07:26:00,74.4,74.1,29.96,North,5,0.0,1.0,99,0.00,,---,0.00,VWS V14.01,2013-08-07 12:26:00,
2013-08-07 07:30:00,74.5,74.2,29.95,NE,34,1.0,2.0,99,0.00,,---,0.00,VWS V14.01,2013-08-07 12:30:00,
2013-08-07 07:31:00,74.6,74.3,29.95,NE,34,0.0,1.0,99,0.00,,---,0.00,VWS V14.01,2013-08-07 12:31:00,
2013-08-07 07:36:00,74.9,74.6,29.96,SSE,158,0.0,2.0,99,0.00,,---,0.00,VWS V14.01,2013-08-07 12:36:00,
2013-08-07 07:41:00,75.0,74.7,29.96,East,95,0.0,2.0,99,0.00,,---,0.00,VWS V14.01,2013-08-07 12:41:00,
2013-08-07 07:46:00,75.3,75.0,29.96,NE,37,0.0,2.0,99,0.00,,---,0.00,VWS V14.01,2013-08-07 12:46:00,
2013-08-07 07:51:00,75.5,75.2,29.96,SE,139,1.0,2.0,99,0.00,,---,0.00,VWS V14.01,2013-08-07 12:51:00,
2013-08-07 07:56:00,76.1,75.8,29.97,East,84,0.0,2.0,99,0.00,,---,0.00,VWS V14.01,2013-08-07 12:56:00,
2013-08-07 08:00:00,76.4,76.1,29.97,East,101,0.0,2.0,99,0.00,,---,0.00,VWS V14.01,2013-08-07 13:00:00,
2013-08-07 08:01:00,76.4,76.1,29.97,ENE,75,0.0,1.0,99,0.00,,---,0.00,VWS V14.01,2013-08-07 13:01:00,
2013-08-07 08:06:00,76.6,76.0,29.97,ESE,105,0.0,2.0,98,0.00,,---,0.00,VWS V14.01,2013-08-07 13:06:00,
2013-08-07 08:11:00,76.8,76.2,29.97,ESE,120,0.0,2.0,98,0.00,,---,0.00,VWS V14.01,2013-08-07 13:11:00,
2013-08-07 08:16:00,77.1,76.5,29.97,East,101,1.0,2.0,98,0.00,,---,0.00,VWS V14.01,2013-08-07 13:16:00,
2013-08-07 08:21:00,77.9,77.3,29.97,ESE,119,0.0,2.0,98,0.00,,---,0.00,VWS V14.01,2013-08-07 13:21:00,
2013-08-07 08:26:00,78.5,77.9,29.97,ESE,116,0.0,2.0,98,0.00,,---,0.00,VWS V14.01,2013-08-07 13:26:00,
2013-08-07 08:30:00,78.8,77.9,29.97,ESE,114,0.0,2.0,97,0.00,,---,0.00,VWS V14.01,2013-08-07 13:30:00,
2013-08-07 08:31:00,79.0,78.1,29.97,ESE,113,0.0,0.0,97,0.00,,---,0.00,VWS V14.01,2013-08-07 13:31:00,
2013-08-07 08:36:00,79.7,78.8,29.97,ESE,115,0.0,1.0,97,0.00,,---,0.00,VWS V14.01,2013-08-07 13:36:00,
2013-08-07 08:41:00,80.1,78.9,29.96,SE,125,0.0,1.0,96,0.00,,---,0.00,VWS V14.01,2013-08-07 13:41:00,
2013-08-07 08:46:00,80.3,78.4,29.96,ESE,115,0.0,1.0,94,0.00,,---,0.00,VWS V14.01,2013-08-07 13:46:00,
2013-08-07 08:51:00,80.7,78.8,29.96,SE,131,0.0,1.0,94,0.00,,---,0.00,VWS V14.01,2013-08-07 13:51:00,
2013-08-07 08:56:00,80.9,78.4,29.96,ESE,115,0.0,1.0,92,0.00,,---,0.00,VWS V14.01,2013-08-07 13:56:00,
2013-08-07 09:00:00,81.0,78.8,29.96,ESE,115,0.0,1.0,93,0.00,,---,0.00,VWS V14.01,2013-08-07 14:00:00,
2013-08-07 09:01:00,81.1,78.9,29.96,ENE,71,0.0,1.0,93,0.00,,---,0.00,VWS V14.01,2013-08-07 14:01:00,
2013-08-07 09:06:00,81.5,79.6,29.96,ESE,110,0.0,1.0,94,0.00,,---,0.00,VWS V14.01,2013-08-07 14:06:00,
2013-08-07 09:11:00,81.8,79.2,29.97,ESE,107,0.0,1.0,92,0.00,,---,0.00,VWS V14.01,2013-08-07 14:11:00,
2013-08-07 09:16:00,82.3,80.1,29.97,SE,128,1.0,2.0,93,0.00,,---,0.00,VWS V14.01,2013-08-07 14:16:00,
2013-08-07 09:21:00,83.0,80.1,29.97,ESE,115,1.0,2.0,91,0.00,,---,0.00,VWS V14.01,2013-08-07 14:21:00,
2013-08-07 09:26:00,83.3,80.1,29.97,ESE,113,1.0,2.0,90,0.00,,---,0.00,VWS V14.01,2013-08-07 14:26:00,
2013-08-07 09:30:00,83.3,79.4,29.97,East,83,0.0,2.0,88,0.00,,---,0.00,VWS V14.01,2013-08-07 14:30:00,
2013-08-07 09:31:00,83.3,79.7,29.97,ENE,63,1.0,1.0,89,0.00,,---,0.00,VWS V14.01,2013-08-07 14:31:00,
2013-08-07 09:36:00,83.9,80.3,29.97,East,88,3.0,3.0,89,0.00,,---,0.00,VWS V14.01,2013-08-07 14:36:00,
2013-08-07 09:41:00,84.3,80.0,29.97,WNW,301,0.0,3.0,87,0.00,,---,0.00,VWS V14.01,2013-08-07 14:41:00,
2013-08-07 09:46:00,85.9,81.6,29.96,WNW,298,0.0,3.0,87,0.00,,---,0.00,VWS V14.01,2013-08-07 14:46:00,
2013-08-07 09:51:00,86.6,80.1,29.96,ENE,77,1.0,3.0,81,0.00,,---,0.00,VWS V14.01,2013-08-07 14:51:00,
2013-08-07 09:56:00,86.4,79.9,29.97,East,99,0.0,3.0,81,0.00,,---,0.00,VWS V14.01,2013-08-07 14:56:00,
2013-08-07 10:00:00,86.6,80.8,29.97,ESE,106,0.0,3.0,83,0.00,,---,0.00,VWS V14.01,2013-08-07 15:00:00,
2013-08-07 10:01:00,86.9,80.4,29.97,East,96,0.0,2.0,81,0.00,,---,0.00,VWS V14.01,2013-08-07 15:01:00,
2013-08-07 10:06:00,86.9,79.6,29.97,NE,43,0.0,3.0,79,0.00,,---,0.00,VWS V14.01,2013-08-07 15:06:00,
2013-08-07 10:11:00,86.9,79.6,29.97,NE,41,1.0,3.0,79,0.00,,---,0.00,VWS V14.01,2013-08-07 15:11:00,
2013-08-07 10:16:00,87.1,80.2,29.97,NE,46,1.0,3.0,80,0.00,,---,0.00,VWS V14.01,2013-08-07 15:16:00,
2013-08-07 10:21:00,88.2,81.6,29.97,WNW,291,0.0,3.0,81,0.00,,---,0.00,VWS V14.01,2013-08-07 15:21:00,
2013-08-07 10:26:00,89.1,80.6,29.97,NE,50,0.0,5.0,76,0.00,,---,0.00,VWS V14.01,2013-08-07 15:26:00,
2013-08-07 10:30:00,89.1,80.9,29.97,NNW,348,1.0,5.0,77,0.00,,---,0.00,VWS V14.01,2013-08-07 15:30:00,
2013-08-07 10:31:00,88.8,80.3,29.98,NNW,340,2.0,2.0,76,0.00,,---,0.00,VWS V14.01,2013-08-07 15:31:00,
2013-08-07 10:36:00,88.4,79.5,29.97,NNW,329,1.0,5.0,75,0.00,,---,0.00,VWS V14.01,2013-08-07 15:36:00,
2013-08-07 10:41:00,88.6,80.1,29.97,NNW,345,1.0,5.0,76,0.00,,---,0.00,VWS V14.01,2013-08-07 15:41:00,
2013-08-07 10:46:00,88.6,79.7,29.97,NNE,18,2.0,5.0,75,0.00,,---,0.00,VWS V14.01,2013-08-07 15:46:00,
2013-08-07 10:51:00,88.4,79.5,29.97,NNW,334,1.0,5.0,75,0.00,,---,0.00,VWS V14.01,2013-08-07 15:51:00,
2013-08-07 10:56:00,88.5,79.2,29.97,WNW,302,0.0,5.0,74,0.00,,---,0.00,VWS V14.01,2013-08-07 15:56:00,
2013-08-07 11:00:00,89.0,80.1,29.97,WSW,242,0.0,5.0,75,0.00,,---,0.00,VWS V14.01,2013-08-07 16:00:00,
2013-08-07 11:01:00,89.2,79.8,29.97,NNE,13,1.0,4.0,74,0.00,,---,0.00,VWS V14.01,2013-08-07 16:01:00,
2013-08-07 11:06:00,89.2,79.0,29.97,NNW,345,0.0,7.0,72,0.00,,---,0.00,VWS V14.01,2013-08-07 16:06:00,
2013-08-07 11:11:00,89.7,79.5,29.97,NE,39,4.0,7.0,72,0.00,,---,0.00,VWS V14.01,2013-08-07 16:11:00,
2013-08-07 11:16:00,90.0,79.8,29.98,West,276,1.0,7.0,72,0.00,,---,0.00,VWS V14.01,2013-08-07 16:16:00,
2013-08-07 11:21:00,90.4,79.7,29.98,East,95,3.0,7.0,71,0.00,,---,0.00,VWS V14.01,2013-08-07 16:21:00,
2013-08-07 11:26:00,90.3,79.6,29.98,NNW,345,2.0,7.0,71,0.00,,---,0.00,VWS V14.01,2013-08-07 16:26:00,
2013-08-07 11:30:00,90.1,79.4,29.98,WNW,298,2.0,7.0,71,0.00,,---,0.00,VWS V14.01,2013-08-07 16:30:00,
2013-08-07 11:31:00,90.0,79.8,29.98,NW,316,2.0,3.0,72,0.00,,---,0.00,VWS V14.01,2013-08-07 16:31:00,
2013-08-07 11:36:00,90.1,80.7,29.98,SE,135,0.0,3.0,74,0.00,,---,0.00,VWS V14.01,2013-08-07 16:36:00,
2013-08-07 11:41:00,90.9,80.6,29.97,SE,134,0.0,3.0,72,0.00,,---,0.00,VWS V14.01,2013-08-07 16:41:00,
2013-08-07 11:46:00,90.9,80.2,29.97,NE,44,2.0,3.0,71,0.00,,---,0.00,VWS V14.01,2013-08-07 16:46:00,
2013-08-07 11:51:00,90.6,79.5,29.97,NE,46,0.0,3.0,70,0.00,,---,0.00,VWS V14.01,2013-08-07 16:51:00,
2013-08-07 11:56:00,91.0,79.4,29.97,ESE,118,1.0,3.0,69,0.00,,---,0.00,VWS V14.01,2013-08-07 16:56:00,
2013-08-07 12:00:00,91.0,79.9,29.97,NE,41,0.0,3.0,70,0.00,,---,0.00,VWS V14.01,2013-08-07 17:00:00,
2013-08-07 12:01:00,91.0,79.9,29.97,ENE,77,0.0,2.0,70,0.00,,---,0.00,VWS V14.01,2013-08-07 17:01:00,
2013-08-07 12:06:00,91.1,79.5,29.97,South,176,3.0,4.0,69,0.00,,---,0.00,VWS V14.01,2013-08-07 17:06:00,
2013-08-07 12:11:00,91.5,79.9,29.96,ENE,65,2.0,4.0,69,0.00,,---,0.00,VWS V14.01,2013-08-07 17:11:00,
2013-08-07 12:15:00,91.2,79.6,29.97,ESE,115,1.0,4.0,69,0.00,,---,0.00,VWS V14.01,2013-08-07 17:15:00,
2013-08-07 12:20:00,91.2,79.2,29.96,ENE,60,0.0,4.0,68,0.00,,---,0.00,VWS V14.01,2013-08-07 17:20:00,
2013-08-07 12:26:00,91.3,79.7,29.96,ESE,106,1.0,4.0,69,0.00,,---,0.00,VWS V14.01,2013-08-07 17:26:00,
2013-08-07 12:30:00,91.3,79.7,29.96,NNE,32,1.0,4.0,69,0.00,,---,0.00,VWS V14.01,2013-08-07 17:30:00,
2013-08-07 12:31:00,91.5,80.3,29.96,ENE,70,1.0,3.0,70,0.00,,---,0.00,VWS V14.01,2013-08-07 17:31:00,
2013-08-07 12:35:00,92.1,81.3,29.96,NE,54,2.0,3.0,71,0.00,,---,0.00,VWS V14.01,2013-08-07 17:35:00,
2013-08-07 12:40:00,91.9,79.8,29.96,ENE,57,2.0,6.0,68,0.00,,---,0.00,VWS V14.01,2013-08-07 17:40:00,
2013-08-07 12:45:00,91.9,79.8,29.95,NNW,336,0.0,6.0,68,0.00,,---,0.00,VWS V14.01,2013-08-07 17:45:00,
2013-08-07 12:50:00,92.0,79.9,29.95,East,79,2.0,6.0,68,0.00,,---,0.00,VWS V14.01,2013-08-07 17:50:00,
2013-08-07 12:55:00,92.0,79.0,29.95,SSE,163,0.0,6.0,66,0.00,,---,0.00,VWS V14.01,2013-08-07 17:55:00,
2013-08-07 13:00:00,92.3,79.3,29.95,SE,141,0.0,2.0,66,0.00,,---,0.00,VWS V14.01,2013-08-07 18:00:00,
2013-08-07 13:05:00,92.2,79.2,29.95,East,94,2.0,7.0,66,0.00,,---,0.00,VWS V14.01,2013-08-07 18:05:00,
2013-08-07 13:10:00,91.4,78.9,29.95,SE,134,0.0,7.0,67,0.00,,---,0.00,VWS V14.01,2013-08-07 18:10:00,
2013-08-07 13:15:00,91.5,79.0,29.94,NNE,25,0.0,7.0,67,0.00,,---,0.00,VWS V14.01,2013-08-07 18:15:00,
2013-08-07 13:20:00,92.0,79.0,29.94,ESE,102,3.0,7.0,66,0.00,,---,0.00,VWS V14.01,2013-08-07 18:20:00,
2013-08-07 13:25:00,92.3,78.8,29.94,SSE,147,2.0,7.0,65,0.00,,---,0.00,VWS V14.01,2013-08-07 18:25:00,
2013-08-07 13:30:00,92.6,79.6,29.94,SSE,153,2.0,3.0,66,0.00,,---,0.00,VWS V14.01,2013-08-07 18:30:00,
2013-08-07 13:35:00,93.0,80.0,29.94,SE,146,4.0,5.0,66,0.00,,---,0.00,VWS V14.01,2013-08-07 18:35:00,
2013-08-07 13:40:00,93.1,79.1,29.94,NNE,22,1.0,5.0,64,0.00,,---,0.00,VWS V14.01,2013-08-07 18:40:00,
2013-08-07 13:45:00,93.1,79.1,29.93,SSE,149,1.0,5.0,64,0.00,,---,0.00,VWS V14.01,2013-08-07 18:45:00,
2013-08-07 13:50:00,93.5,78.0,29.93,NE,50,0.0,5.0,61,0.00,,---,0.00,VWS V14.01,2013-08-07 18:50:00,
2013-08-07 13:55:00,93.5,79.0,29.93,ENE,63,2.0,6.0,63,0.00,,---,0.00,VWS V14.01,2013-08-07 18:55:00,
2013-08-07 14:00:00,93.5,78.5,29.93,North,5,2.0,2.0,62,0.00,,---,0.00,VWS V14.01,2013-08-07 19:00:00,
2013-08-07 14:05:00,93.5,79.0,29.93,NNW,339,0.0,3.0,63,0.00,,---,0.00,VWS V14.01,2013-08-07 19:05:00,
2013-08-07 14:10:00,93.4,77.9,29.93,SE,136,1.0,11.0,61,0.00,,---,0.00,VWS V14.01,2013-08-07 19:10:00,
2013-08-07 14:15:00,93.4,77.9,29.92,NNE,12,3.0,11.0,61,0.00,,---,0.00,VWS V14.01,2013-08-07 19:15:00,
2013-08-07 14:20:00,93.6,79.1,29.92,East,86,2.0,11.0,63,0.00,,---,0.00,VWS V14.01,2013-08-07 19:20:00,
2013-08-07 14:25:00,93.4,77.9,29.92,NE,44,3.0,11.0,61,0.00,,---,0.00,VWS V14.01,2013-08-07 19:25:00,
2013-08-07 14:30:00,93.5,78.5,29.92,SE,124,2.0,5.0,62,0.00,,---,0.00,VWS V14.01,2013-08-07 19:30:00,
2013-08-07 14:35:00,94.0,79.0,29.92,East,89,1.0,5.0,62,0.00,,---,0.00,VWS V14.01,2013-08-07 19:35:00,
2013-08-07 14:40:00,94.4,79.4,29.92,SSE,155,3.0,5.0,62,0.00,,---,0.00,VWS V14.01,2013-08-07 19:40:00,
2013-08-07 14:45:00,94.5,78.5,29.92,NE,39,4.0,5.0,60,0.00,,---,0.00,VWS V14.01,2013-08-07 19:45:00,
2013-08-07 14:50:00,94.4,78.9,29.92,ENE,57,1.0,5.0,61,0.00,,---,0.00,VWS V14.01,2013-08-07 19:50:00,
2013-08-07 14:55:00,93.6,78.6,29.92,ESE,121,1.0,5.0,62,0.00,,---,0.00,VWS V14.01,2013-08-07 19:55:00,
2013-08-07 15:00:00,92.9,78.4,29.91,SE,136,1.0,3.0,63,0.00,,---,0.00,VWS V14.01,2013-08-07 20:00:00,
2013-08-07 15:05:00,92.6,79.6,29.91,SE,130,1.0,6.0,66,0.00,,---,0.00,VWS V14.01,2013-08-07 20:05:00,
2013-08-07 15:10:00,92.8,78.8,29.91,ENE,70,2.0,6.0,64,0.00,,---,0.00,VWS V14.01,2013-08-07 20:10:00,
2013-08-07 15:15:00,93.0,78.1,29.91,East,86,1.0,6.0,62,0.00,,---,0.00,VWS V14.01,2013-08-07 20:15:00,
2013-08-07 15:20:00,93.4,78.9,29.91,North,354,2.0,6.0,63,0.00,,---,0.00,VWS V14.01,2013-08-07 20:20:00,
2013-08-07 15:25:00,93.6,77.6,29.90,ESE,106,0.0,6.0,60,0.00,,---,0.00,VWS V14.01,2013-08-07 20:25:00,
2013-08-07 15:30:00,93.9,77.9,29.90,East,94,2.0,3.0,60,0.00,,---,0.00,VWS V14.01,2013-08-07 20:30:00,
2013-08-07 15:35:00,94.1,78.6,29.90,SE,129,0.0,3.0,61,0.00,,---,0.00,VWS V14.01,2013-08-07 20:35:00,
2013-08-07 15:40:00,94.2,78.2,29.90,ENE,78,1.0,3.0,60,0.00,,---,0.00,VWS V14.01,2013-08-07 20:40:00,
2013-08-07 15:45:00,94.4,78.9,29.90,East,98,2.0,3.0,61,0.00,,---,0.00,VWS V14.01,2013-08-07 20:45:00,
2013-08-07 15:50:00,94.2,79.2,29.90,SSE,155,4.0,5.0,62,0.00,,---,0.00,VWS V14.01,2013-08-07 20:50:00,
2013-08-07 15:55:00,93.4,79.9,29.90,SE,131,0.0,5.0,65,0.00,,---,0.00,VWS V14.01,2013-08-07 20:55:00,
2013-08-07 16:00:00,93.1,81.0,29.90,ESE,108,0.0,0.0,68,0.00,,---,0.00,VWS V14.01,2013-08-07 21:00:00,
2013-08-07 16:05:00,92.8,81.1,29.90,ESE,109,0.0,1.0,69,0.00,,---,0.00,VWS V14.01,2013-08-07 21:05:00,
2013-08-07 16:10:00,93.1,81.9,29.90,ESE,109,0.0,1.0,70,0.00,,---,0.00,VWS V14.01,2013-08-07 21:10:00,
2013-08-07 16:15:00,92.5,79.5,29.91,SSE,166,0.0,2.0,66,0.00,,---,0.00,VWS V14.01,2013-08-07 21:15:00,
2013-08-07 16:20:00,91.4,78.0,29.91,SSE,166,0.0,2.0,65,0.00,,---,0.00,VWS V14.01,2013-08-07 21:20:00,
2013-08-07 16:25:00,90.7,77.8,29.91,SSW,194,0.0,2.0,66,0.00,,---,0.00,VWS V14.01,2013-08-07 21:25:00,
2013-08-07 16:30:00,90.5,77.6,29.91,SSW,198,0.0,0.0,66,0.00,,---,0.00,VWS V14.01,2013-08-07 21:30:00,
2013-08-07 16:35:00,90.6,78.1,29.91,South,176,0.0,0.0,67,0.00,,---,0.00,VWS V14.01,2013-08-07 21:35:00,
2013-08-07 16:40:00,90.9,78.4,29.90,South,172,1.0,1.0,67,0.00,,---,0.00,VWS V14.01,2013-08-07 21:40:00,
2013-08-07 16:45:00,91.2,78.7,29.90,SSW,198,0.0,1.0,67,0.00,,---,0.00,VWS V14.01,2013-08-07 21:45:00,
2013-08-07 16:50:00,91.9,79.4,29.90,SSW,198,0.0,1.0,67,0.00,,---,0.00,VWS V14.01,2013-08-07 21:50:00,
2013-08-07 16:55:00,92.0,78.6,29.90,SSW,202,0.0,1.0,65,0.00,,---,0.00,VWS V14.01,2013-08-07 21:55:00,
2013-08-07 17:00:00,92.1,77.2,29.90,SSW,211,0.0,3.0,62,0.00,,---,0.00,VWS V14.01,2013-08-07 22:00:00,
2013-08-07 17:05:00,91.8,76.9,29.90,East,97,0.0,3.0,62,0.00,,---,0.00,VWS V14.01,2013-08-07 22:05:00,
2013-08-07 17:10:00,91.2,77.8,29.90,SE,129,0.0,3.0,65,0.00,,---,0.00,VWS V14.01,2013-08-07 22:10:00,
2013-08-07 17:15:00,91.0,77.6,29.90,WNW,285,0.0,3.0,65,0.00,,---,0.00,VWS V14.01,2013-08-07 22:15:00,
2013-08-07 17:20:00,90.8,77.4,29.90,SSW,208,0.0,3.0,65,0.00,,---,0.00,VWS V14.01,2013-08-07 22:20:00,
2013-08-07 17:25:00,91.0,77.6,29.90,SSE,165,0.0,3.0,65,0.00,,---,0.00,VWS V14.01,2013-08-07 22:25:00,
2013-08-07 17:30:00,90.6,78.1,29.91,SSW,198,0.0,2.0,67,0.00,,---,0.00,VWS V14.01,2013-08-07 22:30:00,
2013-08-07 17:38:00,91.8,77.9,29.90,SSE,166,0.0,0.0,64,0.00,,---,0.00,VWS V14.01,2013-08-07 22:38:00,
2013-08-07 17:43:00,91.8,77.4,29.90,SSE,166,0.0,0.0,63,0.00,,---,0.00,VWS V14.01,2013-08-07 22:43:00,
2013-08-07 17:48:00,91.8,77.9,29.90,SSE,166,0.0,0.0,64,0.00,,---,0.00,VWS V14.01,2013-08-07 22:48:00,
2013-08-07 17:53:00,91.4,77.5,29.90,East,101,1.0,2.0,64,0.00,,---,0.00,VWS V14.01,2013-08-07 22:53:00,
2013-08-07 17:58:00,90.5,77.6,29.90,East,100,0.0,2.0,66,0.00,,---,0.00,VWS V14.01,2013-08-07 22:58:00,
2013-08-07 18:00:00,90.4,77.5,29.90,East,100,0.0,2.0,66,0.00,,---,0.00,VWS V14.01,2013-08-07 23:00:00,
2013-08-07 18:03:00,90.2,77.8,29.91,ESE,111,0.0,0.0,67,0.00,,---,0.00,VWS V14.01,2013-08-07 23:03:00,
2013-08-07 18:08:00,90.4,78.4,29.90,ESE,112,0.0,0.0,68,0.00,,---,0.00,VWS V14.01,2013-08-07 23:08:00,
2013-08-07 18:13:00,90.8,78.8,29.90,ESE,112,0.0,0.0,68,0.00,,---,0.00,VWS V14.01,2013-08-07 23:13:00,
2013-08-07 18:18:00,91.0,79.0,29.90,ESE,111,0.0,0.0,68,0.00,,---,0.00,VWS V14.01,2013-08-07 23:18:00,
2013-08-07 18:23:00,91.1,79.1,29.90,ESE,112,0.0,0.0,68,0.00,,---,0.00,VWS V14.01,2013-08-07 23:23:00,
2013-08-07 18:28:00,90.5,78.5,29.90,ESE,112,0.0,0.0,68,0.00,,---,0.00,VWS V14.01,2013-08-07 23:28:00,
2013-08-07 18:30:00,90.4,78.4,29.90,ESE,112,0.0,0.0,68,0.00,,---,0.00,VWS V14.01,2013-08-07 23:30:00,
2013-08-07 18:33:00,89.8,78.3,29.91,ESE,112,0.0,0.0,69,0.00,,---,0.00,VWS V14.01,2013-08-07 23:33:00,
2013-08-07 18:38:00,89.1,78.0,29.91,ESE,112,0.0,0.0,70,0.00,,---,0.00,VWS V14.01,2013-08-07 23:38:00,
2013-08-07 18:43:00,88.6,77.6,29.91,ESE,112,0.0,0.0,70,0.00,,---,0.00,VWS V14.01,2013-08-07 23:43:00,
2013-08-07 18:48:00,88.1,77.9,29.91,ESE,112,0.0,0.0,72,0.00,,---,0.00,VWS V14.01,2013-08-07 23:48:00,
2013-08-07 18:53:00,87.3,77.6,29.91,SSW,195,0.0,0.0,73,0.00,,---,0.00,VWS V14.01,2013-08-07 23:53:00,
2013-08-07 18:58:00,86.6,77.3,29.91,SSW,195,0.0,0.0,74,0.00,,---,0.00,VWS V14.01,2013-08-07 23:58:00,
2013-08-07 19:00:00,86.5,77.2,29.91,SSW,195,0.0,0.0,74,0.00,,---,0.00,VWS V14.01,2013-08-08 00:00:00,
2013-08-07 19:03:00,86.1,76.8,29.91,South,191,0.0,0.0,74,0.00,,---,0.00,VWS V14.01,2013-08-08 00:03:00,
2013-08-07 19:08:00,85.6,76.8,29.91,NW,315,0.0,1.0,75,0.00,,---,0.00,VWS V14.01,2013-08-08 00:08:00,
2013-08-07 19:13:00,85.2,76.4,29.92,NW,315,0.0,1.0,75,0.00,,---,0.00,VWS V14.01,2013-08-08 00:13:00,
2013-08-07 19:18:00,84.9,76.9,29.91,NW,313,0.0,1.0,77,0.00,,---,0.00,VWS V14.01,2013-08-08 00:18:00,
2013-08-07 19:23:00,84.6,76.6,29.91,East,89,0.0,1.0,77,0.00,,---,0.00,VWS V14.01,2013-08-08 00:23:00,
2013-08-07 19:28:00,84.3,77.1,29.92,East,89,0.0,1.0,79,0.00,,---,0.00,VWS V14.01,2013-08-08 00:28:00,
2013-08-07 19:30:00,84.2,77.0,29.92,East,89,0.0,1.0,79,0.00,,---,0.00,VWS V14.01,2013-08-08 00:30:00,
2013-08-07 19:33:00,83.8,77.0,29.92,East,90,0.0,0.0,80,0.00,,---,0.00,VWS V14.01,2013-08-08 00:33:00,
2013-08-07 19:38:00,83.5,76.7,29.92,East,98,0.0,2.0,80,0.00,,---,0.00,VWS V14.01,2013-08-08 00:38:00,
2013-08-07 19:43:00,83.2,76.8,29.92,East,86,1.0,3.0,81,0.00,,---,0.00,VWS V14.01,2013-08-08 00:43:00,
2013-08-07 19:48:00,83.1,77.0,29.92,SE,146,0.0,3.0,82,0.00,,---,0.00,VWS V14.01,2013-08-08 00:48:00,
2013-08-07 19:53:00,83.0,76.9,29.91,SE,131,4.0,5.0,82,0.00,,---,0.00,VWS V14.01,2013-08-08 00:53:00,
2013-08-07 19:58:00,82.6,74.3,29.91,SSE,162,1.0,5.0,76,0.00,,---,0.00,VWS V14.01,2013-08-08 00:58:00,
2013-08-07 20:00:00,82.5,74.2,29.91,ENE,73,1.0,5.0,76,0.00,,---,0.00,VWS V14.01,2013-08-08 01:00:00,
2013-08-07 20:03:00,82.3,73.6,29.92,East,95,0.0,4.0,75,0.00,,---,0.00,VWS V14.01,2013-08-08 01:03:00,
2013-08-07 20:08:00,82.1,73.8,29.91,SSE,149,0.0,4.0,76,0.00,,---,0.00,VWS V14.01,2013-08-08 01:08:00,
2013-08-07 20:13:00,82.1,73.8,29.91,SSE,148,0.0,4.0,76,0.00,,---,0.00,VWS V14.01,2013-08-08 01:13:00,
2013-08-07 20:18:00,81.9,73.6,29.91,SSE,148,0.0,4.0,76,0.00,,---,0.00,VWS V14.01,2013-08-08 01:18:00,
2013-08-07 20:23:00,81.8,74.3,29.91,SSE,148,0.0,4.0,78,0.00,,---,0.00,VWS V14.01,2013-08-08 01:23:00,
2013-08-07 20:28:00,81.5,74.0,29.91,SSE,149,0.0,4.0,78,0.00,,---,0.00,VWS V14.01,2013-08-08 01:28:00,
2013-08-07 20:30:00,81.5,74.0,29.91,SSE,149,0.0,4.0,78,0.00,,---,0.00,VWS V14.01,2013-08-08 01:30:00,
2013-08-07 20:33:00,81.3,74.2,29.91,SSE,148,0.0,0.0,79,0.00,,---,0.00,VWS V14.01,2013-08-08 01:33:00,
2013-08-07 20:38:00,80.9,74.2,29.92,SSE,148,0.0,0.0,80,0.00,,---,0.00,VWS V14.01,2013-08-08 01:38:00,
2013-08-07 20:43:00,80.5,73.8,29.91,SE,133,0.0,1.0,80,0.00,,---,0.00,VWS V14.01,2013-08-08 01:43:00,
2013-08-07 20:48:00,80.4,74.0,29.91,SE,133,0.0,1.0,81,0.00,,---,0.00,VWS V14.01,2013-08-08 01:48:00,
2013-08-07 20:53:00,80.3,73.6,29.91,SE,133,0.0,1.0,80,0.00,,---,0.00,VWS V14.01,2013-08-08 01:53:00,
2013-08-07 20:58:00,80.2,73.8,29.91,SE,133,0.0,1.0,81,0.00,,---,0.00,VWS V14.01,2013-08-08 01:58:00,
2013-08-07 21:00:00,80.2,74.2,29.91,SE,133,0.0,1.0,82,0.00,,---,0.00,VWS V14.01,2013-08-08 02:00:00,
2013-08-07 21:03:00,80.1,74.1,29.91,SE,132,0.0,0.0,82,0.00,,---,0.00,VWS V14.01,2013-08-08 02:03:00,
2013-08-07 21:08:00,80.1,74.1,29.92,North,8,1.0,1.0,82,0.00,,---,0.00,VWS V14.01,2013-08-08 02:08:00,
2013-08-07 21:13:00,80.1,74.5,29.92,North,8,0.0,1.0,83,0.00,,---,0.00,VWS V14.01,2013-08-08 02:13:00,
2013-08-07 21:18:00,79.9,74.3,29.93,East,97,0.0,1.0,83,0.00,,---,0.00,VWS V14.01,2013-08-08 02:18:00,
2013-08-07 21:23:00,79.6,74.3,29.93,East,99,0.0,1.0,84,0.00,,---,0.00,VWS V14.01,2013-08-08 02:23:00,
2013-08-07 21:28:00,79.3,74.4,29.94,East,99,0.0,1.0,85,0.00,,---,0.00,VWS V14.01,2013-08-08 02:28:00,
2013-08-07 21:30:00,79.3,74.4,29.94,East,98,0.0,1.0,85,0.00,,---,0.00,VWS V14.01,2013-08-08 02:30:00,
2013-08-07 21:33:00,79.1,74.2,29.94,East,97,0.0,0.0,85,0.00,,---,0.00,VWS V14.01,2013-08-08 02:33:00,
2013-08-07 21:38:00,78.9,74.4,29.94,East,97,0.0,0.0,86,0.00,,---,0.00,VWS V14.01,2013-08-08 02:38:00,
2013-08-07 21:43:00,78.8,74.3,29.94,East,97,0.0,0.0,86,0.00,,---,0.00,VWS V14.01,2013-08-08 02:43:00,
2013-08-07 21:48:00,78.7,74.2,29.94,East,98,0.0,0.0,86,0.00,,---,0.00,VWS V14.01,2013-08-08 02:48:00,
2013-08-07 21:53:00,78.7,74.5,29.94,East,96,0.0,0.0,87,0.00,,---,0.00,VWS V14.01,2013-08-08 02:53:00,
2013-08-07 21:58:00,78.8,74.6,29.95,East,97,0.0,0.0,87,0.00,,---,0.00,VWS V14.01,2013-08-08 02:58:00,
2013-08-07 22:00:00,78.8,74.6,29.95,East,96,0.0,0.0,87,0.00,,---,0.00,VWS V14.01,2013-08-08 03:00:00,
2013-08-07 22:03:00,78.6,74.4,29.95,East,96,0.0,0.0,87,0.00,,---,0.00,VWS V14.01,2013-08-08 03:03:00,
2013-08-07 22:08:00,78.5,74.7,29.95,East,97,0.0,0.0,88,0.00,,---,0.00,VWS V14.01,2013-08-08 03:08:00,
2013-08-07 22:13:00,78.3,74.5,29.95,East,98,0.0,0.0,88,0.00,,---,0.00,VWS V14.01,2013-08-08 03:13:00,
2013-08-07 22:18:00,78.1,74.6,29.95,East,98,0.0,1.0,89,0.00,,---,0.00,VWS V14.01,2013-08-08 03:18:00,
2013-08-07 22:23:00,78.0,74.5,29.95,East,97,0.0,1.0,89,0.00,,---,0.00,VWS V14.01,2013-08-08 03:23:00,
2013-08-07 22:28:00,77.9,74.7,29.95,East,97,0.0,1.0,90,0.00,,---,0.00,VWS V14.01,2013-08-08 03:28:00,
2013-08-07 22:30:00,77.9,74.7,29.95,East,97,0.0,1.0,90,0.00,,---,0.00,VWS V14.01,2013-08-08 03:30:00,
2013-08-07 22:33:00,77.9,74.7,29.95,East,96,0.0,0.0,90,0.00,,---,0.00,VWS V14.01,2013-08-08 03:33:00,
2013-08-07 22:38:00,78.0,74.8,29.95,East,96,0.0,0.0,90,0.00,,---,0.00,VWS V14.01,2013-08-08 03:38:00,
2013-08-07 22:43:00,78.0,74.8,29.95,East,97,0.0,1.0,90,0.00,,---,0.00,VWS V14.01,2013-08-08 03:43:00,
2013-08-07 22:48:00,77.9,74.7,29.95,East,98,0.0,1.0,90,0.00,,---,0.00,VWS V14.01,2013-08-08 03:48:00,
2013-08-07 22:53:00,77.8,74.6,29.95,East,97,0.0,1.0,90,0.00,,---,0.00,VWS V14.01,2013-08-08 03:53:00,
2013-08-07 22:58:00,77.7,74.9,29.95,SE,146,1.0,1.0,91,0.00,,---,0.00,VWS V14.01,2013-08-08 03:58:00,
2013-08-07 23:00:00,77.7,74.9,29.95,SE,145,0.0,1.0,91,0.00,,---,0.00,VWS V14.01,2013-08-08 04:00:00,
2013-08-07 23:01:00,77.7,74.9,29.95,SE,142,0.0,1.0,91,0.00,,---,0.00,VWS V14.01,2013-08-08 04:01:00,
2013-08-07 23:06:00,77.6,74.8,29.94,SE,136,0.0,1.0,91,0.00,,---,0.00,VWS V14.01,2013-08-08 04:06:00,
2013-08-07 23:11:00,77.4,74.6,29.94,SE,136,0.0,1.0,91,0.00,,---,0.00,VWS V14.01,2013-08-08 04:11:00,
2013-08-07 23:16:00,77.4,74.6,29.94,SE,136,0.0,1.0,91,0.00,,---,0.00,VWS V14.01,2013-08-08 04:16:00,
2013-08-07 23:21:00,77.3,74.5,29.94,NE,40,0.0,1.0,91,0.00,,---,0.00,VWS V14.01,2013-08-08 04:21:00,
2013-08-07 23:26:00,77.5,74.7,29.94,North,355,0.0,1.0,91,0.00,,---,0.00,VWS V14.01,2013-08-08 04:26:00,
2013-08-07 23:30:00,77.6,74.8,29.94,ENE,75,0.0,1.0,91,0.00,,---,0.00,VWS V14.01,2013-08-08 04:30:00,
2013-08-07 23:31:00,77.6,74.8,29.93,ENE,75,0.0,0.0,91,0.00,,---,0.00,VWS V14.01,2013-08-08 04:31:00,
2013-08-07 23:36:00,77.6,74.8,29.93,ENE,75,0.0,1.0,91,0.00,,---,0.00,VWS V14.01,2013-08-08 04:36:00,
2013-08-07 23:41:00,77.5,74.7,29.93,ENE,75,0.0,1.0,91,0.00,,---,0.00,VWS V14.01,2013-08-08 04:41:00,
2013-08-07 23:46:00,77.5,74.7,29.93,ENE,75,0.0,1.0,91,0.00,,---,0.00,VWS V14.01,2013-08-08 04:46:00,
2013-08-07 23:51:00,77.4,74.6,29.94,ENE,73,0.0,1.0,91,0.00,,---,0.00,VWS V14.01,2013-08-08 04:51:00,
2013-08-07 23:56:00,77.4,74.9,29.94,ENE,75,0.0,1.0,92,0.00,,---,0.00,VWS V14.01,2013-08-08 04:56:00,